Terug naar catalogus

SL-14 DEB

ActiefPO
NORAD 19580·DEBRIS·🇷🇺 Russia

Gelanceerd Oct 26, 1978 vanaf Plesetsk Cosmodrome

Loading…

Volgende Passages (komende 24 uur)

TLE

VersSource: Space-Track

Epoch: Sep 14, 2026, 10:22 UTC

1 19580U 78100AL  26257.43240332  .00000102  00000-0  47696-3 0  9990
2 19580  82.6497 246.8318 0301622 292.0576 224.0307 12.56657742707825

Volg SL-14 DEB in realtime met AllMySat

Download on the App Store